Weather History for GMMZ - November, 2012

Change the Weather History Date:

Sunday, November 25, 2012

  Actual Average Record
Temperature  
Mean Temperature 54 °F -  
Max Temperature 66 °F 63 °F - ()
Min Temperature 42 °F 37 °F - ()
Degree Days  
Heating Degree Days 11    
Growing Degree Days 4 (Base 50)    
Moisture  
Dew Point 32 °F    
Average Humidity 39    
Maximum Humidity 57    
Minimum Humidity 18    
Precipitation  
Precipitation 0.00 in 0.01 in - ()
Sea Level Pressure  
Sea Level Pressure 30.17 in    
Wind  
Wind Speed 1 mph ()    
Max Wind Speed 5 mph    
Max Gust Speed -    
Visibility 9.3 miles    
Events      
T = Trace of Precipitation, MM = Missing Value Source: Averaged Metar Reports

Daily Weather History Graph

Daily Weather History Graph

Search for Another Location

Airport or City:

Trip Planner

Search our weather history database for the weather conditions in past years. The results will help you decide how hot, cold, wet, or windy it might be!

Date:

Astronomy

Nov. 25, 2012 Rise Set
Actual Time 7:03 AM WET 5:26 PM WET
Civil Twilight 6:37 AM WET 5:52 PM WET
Nautical Twilight 6:07 AM WET 6:21 PM WET
Astronomical Twilight 5:38 AM WET 6:50 PM WET
Moon 3:28 PM WET (11/25) 4:12 AM WET (11/25)
Length of Visible Light 11h 15m
Length of Day
10h 22m
Waxing Gibbous, 91% of the Moon is Illuminated
Nov 25
Waxing Gibbous
Nov 28
Full
Dec 6
Last Quarter
Dec 13
New
Dec 20
First Quarter

Hourly Weather History & Observations

Time (WET) Temp. Dew Point Humidity Pressure Visibility Wind Dir Wind Speed Gust Speed Precip Events Conditions
12:00 AM 56 °F 33 °F 30%  in 12 mi Calm Calm - -   Partly Cloudy
12:00 AM 55.4 °F 33.8 °F 44% 30.21 in - Calm Calm - N/A   Clear
1:00 AM 55.4 °F 32.0 °F 41% 30.21 in - Calm Calm - N/A   Clear
2:00 AM 51.8 °F 32.0 °F 47% 30.18 in - Variable 1.2 mph - N/A   Clear
3:00 AM 51 °F 32 °F 35%  in 12 mi Calm Calm - -   Scattered Clouds
3:00 AM 48.2 °F 30.2 °F 50% 30.18 in - Calm Calm - N/A   Clear
4:00 AM 48.2 °F 30.2 °F 50% 30.18 in - Variable 3.5 mph - N/A   Clear
5:00 AM 44.6 °F 30.2 °F 57% 3.60 in - Variable 2.3 mph - N/A   Clear
6:00 AM 46 °F 30 °F 42%  in 12 mi Calm Calm - -   Scattered Clouds
6:00 AM 46.4 °F 30.2 °F 53% 30.18 in - Calm Calm - N/A   Clear
7:00 AM 42.8 °F 28.4 °F 57% 30.21 in - Calm Calm - N/A   Clear
8:00 AM 44.6 °F 28.4 °F 53% 30.21 in - Variable 1.2 mph - N/A   Clear
9:00 AM 49 °F 30 °F 36%  in 12 mi Calm Calm - -   Scattered Clouds
9:00 AM 48.2 °F 30.2 °F 50% 30.21 in - Calm Calm - N/A   Clear
10:00 AM 53.6 °F 32.0 °F 44% 30.24 in - Calm Calm - N/A   Clear
12:00 PM 62 °F 32 °F 21%  in 12 mi WSW 1.2 mph - -   Scattered Clouds
12:00 PM 60.8 °F 32.0 °F 34% 30.21 in 6.2 mi Variable 1.2 mph - N/A   Scattered Clouds
1:00 PM 62.6 °F 32.0 °F 32% 30.18 in 6.2 mi Variable 1.2 mph - N/A   Scattered Clouds
2:00 PM 64.4 °F 32.0 °F 30% 30.15 in 6.2 mi Variable 1.2 mph - N/A   Scattered Clouds
3:00 PM 65 °F 32 °F 18%  in 12 mi NE 4.6 mph - -   Scattered Clouds
3:00 PM 64.4 °F 32.0 °F 30% 30.12 in 6.2 mi Variable 4.6 mph - N/A   Scattered Clouds
4:00 PM 64.4 °F 32.0 °F 30% 30.12 in 6.2 mi ENE 4.6 mph - N/A   Scattered Clouds
5:00 PM 64.4 °F 32.0 °F 30% 30.09 in 6.2 mi Variable 3.5 mph - N/A   Scattered Clouds
6:00 PM 63 °F 34 °F 22%  in 12 mi SE 1.2 mph - -   Scattered Clouds
6:00 PM 62.6 °F 33.8 °F 34% 30.12 in 6.2 mi Variable 1.2 mph - N/A   Scattered Clouds
7:00 PM 62.6 °F 33.8 °F 34% 30.12 in - Variable 3.5 mph - N/A   Clear
8:00 PM 60.8 °F 33.8 °F 36% 30.15 in - Variable 1.2 mph - N/A   Clear
9:00 PM 57 °F 34 °F 29%  in 12 mi East 2.3 mph - -   Scattered Clouds
9:00 PM 57.2 °F 33.8 °F 41% 30.15 in - Variable 2.3 mph - N/A   Clear
10:00 PM 57.2 °F 33.8 °F 41% 30.15 in - Variable 3.5 mph - N/A   Clear
11:00 PM 53.6 °F 32.0 °F 44% 30.15 in - Variable 2.3 mph - N/A   Clear